Location: Unspecified
(43.1763°N, 79.4719°W)
Time: 22:56:53
(UTC-04:00)

Cosmos 1674 - Visible Passes

Search period start: 25 September 2018 00:00
Search period end: 05 October 2018 00:00
Orbit: 497 x 520 km, 82.5° (Epoch: 24 September)

Date Brightness Start Highest point End Pass type
(mag) Time Alt. Az. Time Alt. Az. Time Alt. Az.
25 Sep 4.0 20:07:03 10° NNE 20:10:08 22° ENE 20:11:28 19° ESE visible
25 Sep 4.8 21:42:27 10° NW 21:45:39 25° W 21:46:22 23° WSW visible
26 Sep 4.2 19:50:06 10° NNE 19:52:48 18° ENE 19:54:56 12° ESE visible
26 Sep 4.4 21:25:00 10° NNW 21:28:27 32° W 21:29:50 24° SW visible
27 Sep 4.5 19:33:19 10° NE 19:35:27 14° ENE 19:37:34 10° ESE visible
27 Sep 3.9 21:07:35 10° NNW 21:11:14 41° W 21:13:26 21° SSW visible
28 Sep 3.4 20:50:13 10° NNW 20:54:01 55° W 20:57:12 14° S visible
29 Sep 2.9 20:32:54 10° NNW 20:36:47 73° W 20:40:36 10° S visible
30 Sep 2.6 20:15:38 10° N 20:19:31 85° E 20:23:22 10° S visible
01 Oct 2.6 19:58:24 10° N 20:02:15 65° E 20:06:04 10° SSE visible
02 Oct 2.9 19:41:12 10° N 19:44:59 49° E 19:48:42 10° SSE visible
02 Oct 6.0 21:18:42 10° WNW 21:20:03 12° W 21:21:23 10° WSW visible
03 Oct 3.2 19:24:03 10° N 19:27:40 37° ENE 19:31:15 10° SE visible
03 Oct 5.9 21:00:40 10° NW 21:02:52 15° W 21:05:05 10° WSW visible
04 Oct 5.6 20:42:57 10° NW 20:45:42 19° W 20:48:26 10° SW visible
